Stations météo

Publicité
Le Touquet, France (7003): Température de l'air & dewpoint: 19.05.2017 08:00:00 - 25.05.2017 08:00:00 (CEST)Le Touquet, France (7003): Température de l'air 5cm: 19.05.2017 08:00:00 - 25.05.2017 08:00:00 (CEST)Le Touquet, France (7003): Vitesse du vent & gusts: 19.05.2017 08:00:00 - 25.05.2017 08:00:00 (CEST)Le Touquet, France (7003): Direction du vent: 19.05.2017 08:00:00 - 25.05.2017 08:00:00 (CEST)Le Touquet, France (7003): reduced air pressure: 19.05.2017 08:00:00 - 25.05.2017 08:00:00 (CEST)Le Touquet, France (7003): visibility: 19.05.2017 08:00:00 - 25.05.2017 08:00:00 (CEST)Le Touquet, France (7003): Ensoleillement: 19.05.2017 08:00:00 - 25.05.2017 08:00:00 (CEST)Le Touquet, France (7003): Quantités de précipitations: 19.05.2017 08:00:00 - 25.05.2017 08:00:00 (CEST)
Date & Time tt [°C] td [°C] tt 5cm [°C] ff [km/h] ff [knt] fx [km/h] fx [knt] dd ppp [hPa] vv [km] sd [min] rr [mm]
25.05.2017 08:00:00 16,6 12,5 10,7 5 3 11 6 E 1025,0 10 60 0,0
25.05.2017 07:00:00 12,8 12,0 8,5 2 1 5 3 SE 1024,8 6 34 0,0
25.05.2017 06:00:00 11,6 10,7 8,5 4 2 5 3 SE 1024,6 2,7 0 0,0
25.05.2017 05:00:00 11,5 10,4 9,1 0 0 9 5 N 1024,6 3,6 0 0,0
25.05.2017 04:00:00 12,5 11,2 9,1 7 4 11 6 SE 1024,9 5 0 0,0
25.05.2017 03:00:00 12,7 11,6 9,1 2 1 6 3 SE 1025,3 4,4 0 0,0
25.05.2017 02:00:00 12,9 11,6 9,9 0 0 9 5 N 1025,5 8 0 0,0
25.05.2017 01:00:00 13,4 12,3 10,1 3 2 7 4 ESE 1025,8 11 0 0,0
25.05.2017 00:00:00 13,1 11,8 11,0 4 2 6 4 N 1025,8 14 0 0,0
24.05.2017 23:00:00 14,4 12,4 12,4 6 3 9 5 NW 1026,1 15 0 0,0
24.05.2017 22:00:00 15,4 12,9 14,1 7 4 14 8 NW 1025,8 13 11 0,0
24.05.2017 21:00:00 16,5 12,8 15,7 12 6 16 9 NW 1025,7 20 60 0,0
24.05.2017 20:00:00 17,8 13,3 17,7 13 7 18 10 NW 1025,6 20 60 0,0
24.05.2017 19:00:00 18,3 13,2 19,0 15 8 22 12 NW 1025,6 17 60 0,0
24.05.2017 18:00:00 19,4 13,1 20,3 14 7 19 11 NNW 1026,0 18 60 0,0
24.05.2017 17:00:00 20,0 13,2 20,8 11 6 20 11 NW 1026,3 18 60 0,0
24.05.2017 16:00:00 20,0 13,5 21,9 13 7 22 12 WNW 1026,5 18 60 0,0
24.05.2017 15:00:00 19,5 13,0 22,1 12 7 21 11 NW 1026,7 19 60 0,0
24.05.2017 14:00:00 18,3 13,4 22,2 11 6 19 10 WNW 1026,9 20 60 0,0
24.05.2017 13:00:00 18,1 13,4 22,7 9 5 16 9 W 1026,8 21 60 0,0
24.05.2017 12:00:00 17,8 13,3 19,0 10 5 15 8 SW 1026,8 19 55 0,0
24.05.2017 11:00:00 16,6 13,5 16,8 6 4 12 6 W 1026,8 20 1 0,0
24.05.2017 10:00:00 14,9 13,4 15,7 7 4 13 7 SW 1026,7 11 0 0,0
24.05.2017 09:00:00 14,3 13,2 15,0 6 3 10 5 W 1026,4 10 0 0,0
24.05.2017 08:00:00 14,0 13,2 14,3 5 3 9 5 SW 1025,9 8 0 0,0
24.05.2017 07:00:00 13,6 13,0 13,9 6 3 9 5 SSW 1025,4 6 0 0,0
24.05.2017 06:00:00 13,4 12,8 13,7 4 2 7 4 SW 1025,1 7 0 0,0
24.05.2017 05:00:00 13,3 12,8 13,6 2 1 10 5 WSW 1025,2 8 0 0,0
24.05.2017 04:00:00 13,2 12,7 13,6 5 3 8 4 SSW 1025,1 3,5 0 0,0
24.05.2017 03:00:00 13,0 12,5 13,4 4 2 10 5 SW 1025,2 4,1 0 0,0
24.05.2017 02:00:00 12,7 12,2 13,4 5 3 10 6 SW 1025,5 0,9 0 0,0
24.05.2017 01:00:00 12,8 12,3 13,6 6 3 10 5 WSW 1025,3 0,9 0 0,0
24.05.2017 00:00:00 12,9 12,3 13,9 6 4 13 7 W 1025,3 0,9 0 0,0
23.05.2017 23:00:00 13,2 12,6 14,1 7 4 17 9 WSW 1025,2 2,7 0 0,0
23.05.2017 22:00:00 13,5 12,7 14,6 9 5 20 11 W 1024,9 1,0 0 0,0
23.05.2017 21:00:00 14,2 12,6 15,0 11 6 21 11 WSW 1024,6 16 0 0,0
23.05.2017 20:00:00 14,8 12,7 16,0 9 5 20 11 WSW 1024,4 20 0 0,0
23.05.2017 19:00:00 15,3 12,4 16,7 10 5 27 14 W 1024,1 20 34 0,0
23.05.2017 18:00:00 16,0 11,6 18,0 16 9 28 15 WSW 1023,8 28 27 0,0
23.05.2017 17:00:00 16,5 11,6 18,9 16 8 28 15 W 1023,8 20 38 0,0
23.05.2017 16:00:00 16,9 11,2 18,7 14 8 25 14 W 1023,8 20 35 0,0
23.05.2017 15:00:00 15,8 11,0 18,8 15 8 25 13 WNW 1023,9 33 2 0,0
23.05.2017 14:00:00 17,2 11,5 20,9 16 8 25 14 WNW 1023,4 20 40 0,0
23.05.2017 13:00:00 16,9 11,0 21,9 10 6 22 12 W 1022,9 20 60 0,0
23.05.2017 12:00:00 16,6 11,3 18,8 16 9 29 15 WNW 1022,8 20 53 0,0
23.05.2017 11:00:00 15,8 10,8 18,7 13 7 24 13 WNW 1022,1 20 60 0,0
23.05.2017 10:00:00 15,8 10,8 16,9 12 7 27 15 NW 1021,2 20 60 0,0
23.05.2017 09:00:00 14,9 10,5 14,7 14 8 26 14 WNW 1020,4 20 56 0,0
23.05.2017 08:00:00 14,5 10,9 12,9 13 7 24 13 WNW 1019,8 20 56 0,0
23.05.2017 07:00:00 13,6 11,1 12,6 11 6 26 14 W 1019,1 20 6 0,0
23.05.2017 06:00:00 13,3 11,7 12,5 14 7 24 13 W 1018,1 17 0 0,0
23.05.2017 05:00:00 13,3 12,0 12,9 11 6 25 13 W 1017,8 11 0 0,0
23.05.2017 04:00:00 13,4 12,1 12,8 16 9 25 14 WSW 1017,6 12 0 0,0
23.05.2017 03:00:00 13,8 11,7 12,8 13 7 23 13 WSW 1017,2 16 0 0,0
23.05.2017 02:00:00 14,4 11,5 12,6 8 4 23 12 W 1016,6 20 0 0,0
23.05.2017 01:00:00 16,3 10,8 10,3 13 7 23 12 W 1016,5 20 0 0,0
23.05.2017 00:00:00 14,7 11,3 10,7 3 2 8 4 S 1016,1 20 0 0,0
22.05.2017 23:00:00 15,8 11,4 11,5 0 0 5 3 N 1016,3 20 0 0,0
22.05.2017 22:00:00 17,6 11,2 12,9 2 1 7 4 NNW 1015,8 20 8 0,0
22.05.2017 21:00:00 20,4 9,6 16,5 7 4 9 5 NNW 1015,3 20 50 0,0
22.05.2017 20:00:00 22,3 9,8 18,6 8 4 13 7 N 1015,0 20 60 0,0
22.05.2017 19:00:00 24,0 9,2 20,2 5 3 16 9 W 1015,0 20 60 0,0
22.05.2017 18:00:00 23,4 9,0 21,8 14 8 19 11 N 1015,4 19 57 0,0
22.05.2017 17:00:00 23,6 8,1 21,8 4 2 21 11 W 1015,6 20 51 0,0
22.05.2017 16:00:00 23,8 8,2 22,7 11 6 19 10 S 1016,0 20 57 0,0
22.05.2017 15:00:00 22,8 8,1 22,0 13 7 22 12 S 1016,3 20 3 0,0
22.05.2017 14:00:00 23,0 7,1 25,2 16 8 26 14 SSE 1016,5 20 60 0,0
22.05.2017 13:00:00 22,7 8,4 22,6 18 10 27 15 SE 1017,0 20 52 0,0
22.05.2017 12:00:00 22,0 8,8 24,2 12 7 19 11 SSE 1017,4 20 60 0,0
22.05.2017 11:00:00 20,5 11,1 20,7 7 4 16 9 SE 1017,7 20 60 0,0
22.05.2017 10:00:00 17,9 10,3 16,3 10 6 21 11 SE 1017,8 20 52 0,0
22.05.2017 09:00:00 15,4 10,2 12,7 10 6 16 9 SE 1018,1 20 54 0,0
22.05.2017 08:00:00 12,9 9,3 7,8 8 5 11 6 SE 1018,2 20 60 0,0
22.05.2017 07:00:00 9,4 7,8 6,5 6 3 8 4 SSE 1018,5 20 15 0,0
22.05.2017 06:00:00 8,9 7,2 6,7 6 3 11 6 S 1018,6 20 0 0,0
22.05.2017 05:00:00 9,2 7,5 6,2 8 4 10 5 SSE 1018,7 20 0 0,0
22.05.2017 04:00:00 9,7 7,5 5,8 5 3 8 4 S 1019,3 20 0 0,0
22.05.2017 03:00:00 10,4 8,0 5,9 6 3 8 4 SSE 1019,9 20 0 0,0
22.05.2017 02:00:00 11,3 8,3 6,5 5 3 7 4 SSE 1020,3 20 0 0,0
22.05.2017 01:00:00 12,1 8,8 7,5 4 2 8 4 SSE 1020,9 20 0 0,0
22.05.2017 00:00:00 13,0 8,7 8,8 6 3 9 5 SE 1021,2 20 0 0,0
21.05.2017 23:00:00 13,8 9,2 10,0 8 4 12 7 SE 1021,3 20 0 0,0
21.05.2017 22:00:00 14,8 9,4 11,4 9 5 16 9 E 1021,3 20 7 0,0
21.05.2017 21:00:00 17,3 9,9 13,9 8 4 16 9 SE 1021,5 20 60 0,0
21.05.2017 20:00:00 19,1 9,0 17,2 12 6 26 14 ESE 1021,7 20 57 0,0
21.05.2017 19:00:00 19,4 8,4 17,8 17 9 26 14 SE 1022,1 20 33 0,0
21.05.2017 18:00:00 20,0 8,3 18,2 18 10 31 17 SE 1022,4 20 39 0,0
21.05.2017 17:00:00 20,8 9,4 19,6 14 8 29 16 SE 1023,4 20 39 0,0
21.05.2017 16:00:00 19,1 10,1 19,2 10 5 21 11 ESE 1024,1 20 17 0,0
21.05.2017 15:00:00 18,8 10,1 19,0 8 5 21 11 E 1024,5 20 12 0,0
21.05.2017 14:00:00 18,6 9,1 20,0 10 5 21 11 SE 1025,0 20 26 0,0
21.05.2017 13:00:00 18,8 9,0 - 9 5 21 11 S 1025,7 20 - 0,0
21.05.2017 12:00:00 17,3 9,2 19,7 10 5 18 10 SE 1026,3 20 47 0,0
21.05.2017 11:00:00 16,3 8,3 18,1 11 6 16 9 ESE 1026,5 20 57 0,0
21.05.2017 10:00:00 15,0 10,2 14,4 9 5 13 7 ESE 1026,5 20 41 0,0
21.05.2017 09:00:00 12,5 9,5 11,1 8 4 11 6 SE 1026,4 20 46 0,0
21.05.2017 08:00:00 10,2 8,8 8,8 8 4 10 6 SE 1026,4 20 49 0,0
21.05.2017 07:00:00 9,0 7,9 8,6 8 4 11 6 SSE 1026,1 20 4 0,0
21.05.2017 06:00:00 9,4 8,0 8,8 6 3 9 5 SSE 1025,9 20 0 0,0
21.05.2017 05:00:00 9,7 8,6 8,6 5 3 10 5 SE 1025,5 20 0 0,0
21.05.2017 04:00:00 10,0 8,8 8,5 5 3 9 5 SE 1025,6 20 0 0,0
21.05.2017 03:00:00 10,6 8,9 9,5 5 3 8 5 SSE 1025,6 20 0 0,0
21.05.2017 02:00:00 10,8 8,9 9,6 5 3 6 3 SE 1025,7 20 0 0,0
21.05.2017 01:00:00 10,6 8,9 9,1 3 2 10 5 SE 1025,6 20 0 0,0
21.05.2017 00:00:00 10,7 8,8 9,3 6 3 8 4 SE 1025,2 20 0 0,0
20.05.2017 23:00:00 10,6 8,4 7,8 4 2 6 4 SE 1024,9 20 0 0,0
20.05.2017 22:00:00 11,9 7,6 8,6 4 2 10 5 S 1024,3 3,8 6 0,0
20.05.2017 21:00:00 13,3 7,5 11,3 8 4 19 11 SW 1023,8 20 60 0,0
20.05.2017 20:00:00 14,5 7,8 13,8 11 6 27 15 SW 1023,4 20 60 0,0
20.05.2017 19:00:00 15,2 8,4 14,4 12 7 26 14 SW 1023,0 20 54 0,0
20.05.2017 18:00:00 15,1 7,9 16,3 15 8 25 13 WSW 1022,7 20 60 0,0
20.05.2017 17:00:00 15,1 8,3 18,2 16 8 31 17 WSW 1022,6 20 60 0,0
20.05.2017 16:00:00 15,2 8,2 20,0 15 8 30 16 WSW 1022,2 20 60 0,0
20.05.2017 15:00:00 15,3 9,0 19,8 16 9 34 19 WSW 1021,7 20 60 0,0
20.05.2017 14:00:00 14,9 8,4 18,6 16 9 34 18 SW 1021,4 20 58 0,0
20.05.2017 13:00:00 14,0 9,0 16,3 21 11 35 19 SW 1020,9 20 40 0,0
20.05.2017 12:00:00 13,8 10,0 14,3 18 10 35 19 SW 1020,5 20 37 0,0
20.05.2017 11:00:00 12,9 10,1 10,4 18 10 34 18 SW 1019,8 20 29 0,0
20.05.2017 10:00:00 10,8 9,4 9,8 10 5 38 21 SSW 1019,1 15 3 4,3
20.05.2017 09:00:00 11,8 9,0 10,9 17 9 28 15 SW 1018,4 20 1 0,0
20.05.2017 08:00:00 11,2 8,9 9,7 10 5 25 14 WSW 1017,7 20 1 0,2
20.05.2017 07:00:00 10,5 7,6 9,1 8 4 23 12 S 1017,2 20 6 0,0
20.05.2017 06:00:00 10,9 7,4 8,8 12 6 19 10 WSW 1016,5 20 0 0,0
20.05.2017 05:00:00 10,8 7,3 8,7 11 6 21 11 WSW 1016,3 20 0 0,0
20.05.2017 04:00:00 10,6 6,9 8,2 10 6 20 11 WSW 1016,2 20 0 0,0
20.05.2017 03:00:00 8,9 7,7 7,8 4 2 10 5 S 1016,1 20 0 0,0
20.05.2017 02:00:00 8,5 7,4 7,6 3 2 5 3 S 1016,3 20 0 0,0
20.05.2017 01:00:00 8,9 7,7 8,0 5 3 7 4 SE 1016,0 20 0 0,0
20.05.2017 00:00:00 10,2 7,6 8,2 3 2 8 4 SSW 1015,9 20 0 0,0
19.05.2017 23:00:00 10,7 7,9 9,2 4 2 11 6 SW 1015,8 20 0 0,0
19.05.2017 22:00:00 11,3 8,2 10,4 8 4 16 9 WSW 1015,4 20 5 0,0
19.05.2017 21:00:00 12,0 8,3 11,7 10 5 21 11 WSW 1014,9 20 60 0,0
19.05.2017 20:00:00 13,4 8,5 13,6 12 7 27 14 W 1014,7 20 57 0,0
19.05.2017 19:00:00 13,2 8,3 13,9 11 6 29 16 W 1014,5 20 43 0,0
19.05.2017 18:00:00 13,2 8,3 14,6 21 11 34 18 W 1014,3 20 52 0,0
19.05.2017 17:00:00 14,3 9,3 16,2 21 11 41 22 W 1014,1 20 42 0,0
19.05.2017 16:00:00 14,2 9,2 16,7 23 12 42 23 W 1013,9 20 49 0,0
19.05.2017 15:00:00 14,3 9,7 16,8 22 12 40 21 WSW 1013,7 20 42 0,0
19.05.2017 14:00:00 13,5 9,3 16,7 20 11 38 21 W 1013,7 20 41 0,0
19.05.2017 13:00:00 13,8 9,4 16,5 19 10 39 21 W 1013,4 20 39 0,0
19.05.2017 12:00:00 13,5 9,5 15,1 18 10 38 20 W 1013,3 20 42 0,0
19.05.2017 11:00:00 12,7 10,1 11,9 21 11 32 18 W 1012,6 20 8 0,2
19.05.2017 10:00:00 11,0 9,6 11,4 13 7 23 13 W 1012,2 8 0 2,8
19.05.2017 09:00:00 12,0 9,6 11,6 10 6 19 11 WNW 1011,5 20 0 0,0
19.05.2017 08:00:00 11,1 8,8 10,6 11 6 26 14 W 1011,4 20 0 0,0

tt = Température de l'air
td = dewpoint
tt 5cm = Température de l'air 5cm
ff = Vitesse du vent
fx = gusts
dd = Direction du vent
ppp = reduced air pressure
vv = visibility
sd = Ensoleillement
rr = Quantités de précipitations

stations d'obs. à proximité